www.pogodaiklimat.ru

ПОГОДА в Бейвилле, NJ

  • Прогноз погоды в Бейвилле
  • Монитор погоды в Бейвилле
  • Климат в Бейвилле

АРХИВ ПОГОДЫ в Бейвилле

Время (UTC), дата Ветер
(напр.,м/с)
 
Видим.   Явления Облачность Т
(С)
Тd
(С)
f
(%)
Тe
(С)
Тes
(С)
Комфортность

P
(гПа)

Po
(гПа)
Тmin
(С)
Tmax
(С)
R
(мм)
SD
(см)
20:56 22.03 З  8
{11} 
16 км    8/8 1800 м
[средняя] 
+10.0  -0.6  48  +6  +6    998.4  994.9         
21:56 22.03 З  7
{13} 
16 км    10/8 1650 м
[средняя] 
+6.7  +1.7  70  +2  +2    1000.0  996.2         
22:56 22.03 З  8
{13} 
16 км    8/8 780 м
[средняя] 
+5.6  +1.7  76  -0  -0    1001.2  997.6  +5.6  +10.0     
23:09 22.03 З  9
{13} 
16 км    8/5 780 м
[средняя] 
+5.0  +1.0  75  -2  -2      997.9         
23:56 22.03 З  9
{12} 
16 км    10/8 1500 м
[средняя] 
+5.0  +0.6  73  -1  -1    1002.1  998.3         
00:56 23.03 З  9
{14} 
16 км    5/2 1800 м
[средняя] 
+4.4  0.0  73  -2  -2    1002.7  998.9         
01:56 23.03 З  10
{14} 
16 км    2/0 3000 м
[средняя] 
+4.4  -1.1  67  -2  -2    1003.1  999.3         
02:56 23.03 З  7
{13} 
16 км    ясно  +3.9  -1.7  67  -2  -2    1003.7  1000.0         
03:56 23.03 З  10
{16} 
16 км    ясно  +3.9  -4.4  55  -3  -3    1003.8  1000.0         
04:56 23.03 З  9
{14} 
16 км    8/2 1470 м
[средняя] 
+3.9  -5.6  50  -3  -3    1004.4  1000.6  +3.9  +5.6     
05:56 23.03 З  11
{15} 
16 км    10/10 1410 м  +3.3  -4.4  57  -4  -4    1005.2  1001.3         
06:56 23.03 З  8
{13} 
16 км    8/5 1290 м
[средняя] 
+2.8  -5.0  56  -4  -4    1005.8  1002.0         
07:56 23.03 З  7
{13} 
16 км    10/10 1230 м  +2.2  -5.0  59  -4  -4    1006.7  1003.0         
08:56 23.03 З  10
{16} 
16 км    ясно  +1.7  -6.1  56  -6  -6    1007.7  1004.0         
09:56 23.03 З  11
{14} 
16 км    ясно  +1.7  -5.6  58  -6  -6    1008.7  1005.0         
10:56 23.03 З  8
{14} 
16 км    5/0 3300 м
[средняя] 
+2.2  -5.6  56  -4  -4    1010.3  1006.7  +1.7  +3.9     
11:56 23.03 СЗ  9
{15} 
16 км    ясно  +3.3  -5.0  54  -3  -3    1011.2  1007.4         
12:56 23.03 СЗ  13
{17} 
16 км    ясно  +5.0  -5.0  48  -2  -2    1011.9  1008.1         
13:56 23.03 З  11
{16} 
16 км    ясно  +6.1  -4.4  47  0  0    1013.0  1009.4         
14:56 23.03 СЗ  13
{16} 
16 км    ясно  +7.2  -5.0  42  +1  +1    1013.3  1009.4         
15:56 23.03 З  11
{14} 
16 км    ясно  +7.8  -5.0  40  +3  +3    1014.3  1010.4         
16:56 23.03 З  10
{15} 
16 км    ясно  +8.9  -6.1  34  +4  +5    1014.9  1011.1  +2.2  +9.4     
17:56 23.03 СЗ  11
{18} 
16 км    ясно  +8.9  -8.3  29  +4  +4    1014.9  1011.1         
18:56 23.03 СЗ  9
{12} 
16 км    ясно  +10.0  -8.9  25  +6  +7    1015.3  1011.4         
19:56 23.03 З  9
{16} 
16 км    ясно  +10.6  -10.6  21  +7  +7    1016.0  1012.1         
20:56 23.03 СЗ  10
{14} 
16 км    ясно  +10.0  -10.6  22  +6  +6    1016.6  1012.8         
21:56 23.03 СЗ  8
{13} 
16 км    ясно  +8.9  -11.1  23  +5  +5    1018.0  1014.1         
22:56 23.03 СЗ  16 км    ясно  +7.8  -11.1  25  +5  +5    1019.7  1015.8  +7.8  +10.6     
23:56 23.03 З  16 км    ясно  +6.1  -10.6  29  +3  +3    1020.8  1017.2         
00:56 24.03 З  16 км    ясно  +3.9  -10.0  35  +1  +1    1021.5  1017.9         
01:56 24.03   16 км    ясно  0.0  -7.8  56  -1  -1    1022.0  1018.2         
02:56 24.03 З  16 км    ясно  -1.1  -7.8  60  -5  -5    1022.3  1018.5         
03:56 24.03 З  16 км    ясно  +1.7  -10.6  40  -3  -3    1022.7  1018.9         
04:56 24.03 З  16 км    ясно  0.0  -8.9  51  -4  -4    1023.3  1019.5  -2.8  +7.8     
05:56 24.03 З  16 км    ясно  -3.3  -7.8  71  -9  -9    1023.4  1019.5         
06:56 24.03   16 км    ясно  -3.3  -7.2  74  -4  -4    1023.6  1019.9         
07:56 24.03 З  16 км    ясно  -2.2  -7.8  65  -6  -6    1023.6  1019.9         
08:56 24.03   16 км    ясно  -4.4  -7.8  77  -5  -5    1024.2  1020.6         
09:56 24.03 З  16 км    ясно  -2.8  -7.8  68  -7  -7    1025.0  1021.2         
10:56 24.03 З  16 км    ясно  0.0  -6.7  61  -4  -4    1025.3  1021.6  -5.6  +0.6     
11:56 24.03 З  16 км    ясно  +6.1  -7.8  36  +3  +4    1025.4  1021.6         
12:56 24.03 З  6
{9} 
16 км    ясно  +8.9  -8.9  27  +6  +7    1025.1  1021.2         
13:56 24.03 З  16 км    2/2 60 м  +10.6  -8.9  24  +8  +9    1024.7  1020.9         
14:56 24.03 З  4
{9} 
16 км    ясно  +12.2  -8.3  23  +11  +18    1023.8  1020.2         
15:56 24.03 З  16 км    ясно  +13.3  -7.8  22  +11  +14    1022.9  1019.2         
16:56 24.03 ЮЗ  8
{9} 
16 км    ясно  +15.6  -7.8  19  +14  +16    1022.0  1018.2  0.0  +15.6     
17:56 24.03 З  8
{11} 
16 км    ясно  +16.1  -6.7  20  +15  +16    1020.7  1016.8         
18:56 24.03 ЮЗ  7
{10} 
16 км    ясно  +17.2  -7.2  18  +16  +18    1019.4  1015.8         

 

Местоположение метеостанции Miller Air Park: широта 39.9270 долгота -74.2920 высота над уровнем моря 25 м.

В архиве по умолчанию представлена погода в Бейвилле за последние 1-2 суток. Обновление информации о фактической погоде в базе происходит ежечасно! Архивные данные за месяц целиком и за предыдущие месяцы Вы можете получить, выбрав интересующий диапазон дат из раскрывающегося списка и нажав кнопку "Ввод!".

Внимание! Архив погоды МЕТАР в базе сайта хранится не более 60 дней. Нет смысла пытаться выбрать более раннюю дату.

Внимание! Время в таблицах - всемирное. Для получения местного времени необходимо прибавить поправку, которая в Бейвилле равна -5 ч.

Ветер - указаны скорость ветра в м/с и направление, откуда дует ветер: С - северный, СВ - северо-восточный, В - восточный, ЮВ - юго-восточный, Ю - южный, ЮЗ - юго-западный, З - западный, СЗ - северо-западный.
Видимость - горизонтальная дальность видимости в метрах или километрах. При видимости от 1 до 10 км при отсутствии осадков обычно наблюдается дымка, при ухудшении видимости до 1 км и менее - туман. В сухую погоду видимость может ухудшаться дымом, пылью или мглою.
Атмосферные явления - указаны явления, наблюдавшиеся в указанный момент времени.
Облачность - указаны через наклонную черту верхняя и нижняя облачность в баллах и высота нижней границы облаков в метрах. Внимание: облачность, как и прочие метеорологические величины в США измеряются автоматическими метеостанциями. Указанные значения в баллах носят условный характер и показывают процент времени, в течение которого, в среднем, лазерный луч высотомера отражался от облаков обратно.
T - Температура воздуха - температура, измеренная на высоте 2 м над землей.
Td - Температура точки росы - температура, при понижении до которой содержащийся в воздухе водяной пар достигнет насыщения.
f - Относительная влажность воздуха - влажноcть воздуха, измеренная на высоте 2 м над землей.
Te - Эффективная температура - температура, которую ощущает одетый по сезону человек в тени. Характеристика душности погоды. При расчете учитывается влияние влажности воздуха и скорости ветра на теплоощущения человека.
Tes - Эффективная температура на солнце - температура, которую ощущает человек, с поправкой на солнечный нагрев. Характеристика знойности погоды. Зависит от высоты солнца над горизонтом, облачности и скорости ветра. Ночью, в пасмурную погоду, а также при ветре 12 м/с и более поправка равна нулю.
P - Атмосферное давление - приведенное к уровню моря атмосферное давление.
Po - Атмосферное давление - измеренное на уровне метеостанции атмосферное давление.
Tmin - Минимальная температура - минимум температуры воздуха на высоте 2 м над землей.
Tmax - Максимальная температура - максимум температуры воздуха на высоте 2 м над землей.
R - Количество осадков - Количество выпавших осадков за 3 или 6 часов, мм.
SD - Снежный покров - Высота снежного покрова, см.